Location: Yucca Valley
(34.1140°N, 116.4310°W)
Time: 17:54:25
(UTC-07:00)

Daily predictions for brighter satellites

Satellite Brightness Start Highest point End
(mag) Time Altitude Azimuth Time Altitude Azimuth Time Altitude Azimuth
SL-16 R/B 3.1 20:26:42 10° N 20:31:48 33° ENE 20:36:53 10° SE
Cosmos 1980 Rocket 2.3 20:27:09 10° NNW 20:32:50 83° WSW 20:38:31 10° SSE
Cosmos 2360 Rocket 4.2 20:30:15 10° NNE 20:32:51 13° NE 20:35:25 10° E
Meteor 1-24 Rocket 4.1 20:31:16 10° SSW 20:36:56 71° W 20:42:26 10° N
Cosmos 1697 Rocket 3.9 20:34:17 10° NW 20:39:33 40° WSW 20:44:45 10° S
Cosmos 1408 Rocket 4.0 20:35:32 10° SSW 20:39:55 69° W 20:44:19 10° N
FENGYUN 3A 3.9 20:37:28 10° S 20:42:52 77° WSW 20:48:18 10° NNW
Cosmos 540 Rocket 3.5 20:37:58 10° NNW 20:43:10 86° ENE 20:48:18 10° SSE
Cosmos 1553 Rocket 4.3 20:39:01 10° N 20:45:12 49° E 20:51:17 10° SSE
Cosmos 1674 4.1 20:44:48 11° SE 20:47:30 20° E 20:50:23 10° NE
USA 229 DEB 3.7 20:41:33 10° SSW 20:48:19 61° ESE 20:55:10 10° NE
YAOGAN 11 4.0 20:44:03 10° SSE 20:48:20 81° ENE 20:52:40 10° N
USA 229 3.8 20:41:40 10° SSW 20:48:26 61° ESE 20:55:16 10° NE
Cosmos 332 Rocket 3.8 20:44:02 10° NNW 20:48:53 77° ENE 20:53:44 10° SSE
DELTA 2 R/B(2) 3.2 20:50:54 10° WSW 20:52:29 61° NNW 20:54:20 10° ENE
Cosmos 1437 Rocket 4.0 20:50:46 10° NNE 20:53:52 23° ENE 20:56:07 15° ESE
GPS 2-04 Rocket1 2.9 20:50:35 10° W 20:54:58 73° SSW 20:58:33 14° ESE
H-2A R/B 3.8 20:52:01 10° S 20:55:44 45° W 20:59:26 10° NNW
Cosmos 968 Rocket 3.5 20:52:02 10° SSW 20:57:12 85° WNW 21:02:26 10° NNE
Cosmos 1151 Rocket 4.3 20:56:40 10° NNE 21:00:08 23° ENE 21:02:24 16° ESE
CZ-4 DEB 4.3 21:03:43 10° SSW 21:06:40 34° W 21:09:38 10° NNW
Meteor 1-21 Rocket 4.1 21:03:06 10° S 21:08:39 81° E 21:14:11 10° N
H-2A R/B 2.1 21:08:11 13° SSE 21:12:13 79° ENE 21:16:45 10° N
Envisat 3.1 21:10:50 15° SSE 21:14:58 64° ENE 21:20:00 10° N
Cosmos 2058 4.2 21:19:09 20° ESE 21:19:54 22° E 21:23:03 10° NE
Cosmos 2292 4.1 21:17:15 10° N 21:20:15 87° W 21:22:20 20° S
Cosmos 1328 Rocket 3.7 21:16:14 10° N 21:20:42 78° W 21:24:35 13° S
DELTA 2 R/B (1) 4.3 21:15:48 10° WNW 21:21:12 50° N 21:26:35 10° E
Meteor 2-20 4.4 21:15:22 10° S 21:21:30 79° E 21:27:39 10° N
YAOGAN 6 3.8 21:20:33 23° ESE 21:21:42 27° ENE 21:24:49 10° NNE
ERS-1 Rocket 3.5 21:19:25 10° S 21:24:21 57° W 21:29:19 10° NNW
Cosmos 371 Rocket 3.5 21:20:36 10° NNW 21:25:23 67° WSW 21:29:06 16° S
Cosmos 1437 3.3 21:25:22 33° SE 21:26:05 38° E 21:29:10 10° NNE
Cosmos 2228 Rocket 3.9 21:21:53 10° NNW 21:26:13 50° W 21:30:34 10° SSW
SPOT 5 2.7 21:25:09 23° SSE 21:27:52 65° ENE 21:32:30 10° N
Cosmos 405 3.4 21:25:18 10° N 21:28:48 44° E 21:29:54 33° SE
S3M 4.3 21:24:37 10° NNW 21:30:41 67° W 21:36:44 10° S
Cosmos 1777 Rocket 4.3 21:26:09 10° SSW 21:31:23 69° WNW 21:36:39 10° NNE
CZ-2C R/B 2.6 21:33:17 14° WSW 21:33:34 14° W 21:34:39 10° WNW
Cosmos 1500 Rocket 4.4 21:32:39 10° SSW 21:36:51 49° W 21:41:07 10° N
MetOp-A 4.1 21:36:13 25° SSE 21:39:20 70° ENE 21:44:40 10° N
ARGOS 3.8 21:37:20 26° ESE 21:39:41 39° ENE 21:44:39 10° N
H-2A R/B 3.6 21:41:19 18° E 21:43:00 21° ENE 21:46:54 10° NNE
PSLV R/B 3.1 21:42:34 48° S 21:43:18 79° WSW 21:46:23 10° NNW
SL-08 RB Rocket 4.5 21:46:47 30° E 21:47:49 34° ENE 21:51:52 10° N
Cosmos 2219 3.2 21:43:34 13° S 21:48:34 64° ESE 21:54:16 10° NNE
ATLAS CENTAUR R/B 3.3 21:47:41 10° WNW 21:51:07 23° WSW 21:53:26 15° SSW
Delta 2 Rocket 2.7 21:51:05 10° W 21:54:33 85° NNW 21:55:06 60° ENE
SPOT 1/Viking Rocket 3.6 21:52:44 36° SE 21:54:47 66° ENE 21:59:53 10° N
NOSS 3-1 (C) 3.3 21:50:48 10° SSW 21:56:22 61° ESE 22:02:30 10° NE
Cosmos 1726 3.6 21:54:22 10° NNE 21:57:09 25° ENE 21:57:09 25° ENE
Cosmos 2322 3.7 21:55:01 10° NNW 22:00:44 72° ENE 22:02:51 39° SE
FALCON 9 R/B 4.3 21:26:43 10° WSW 22:01:51 87° S 22:09:31 10° E
Cosmos 2237 Rocket 4.4 22:01:05 10° NE 22:02:51 11° NE 22:04:38 10° ENE
USA 245 3.3 22:03:51 44° N 22:03:51 44° N 22:05:42 10° N
Cosmos 1680 Rocket 3.5 21:58:18 10° NNW 22:03:34 73° ENE 22:05:13 44° SE
Cosmos 2322 Rocket 3.6 22:01:30 10° NW 22:06:22 31° WSW 22:10:01 16° SSW
Cosmos 1908 4.3 22:02:49 10° NNW 22:06:29 40° W 22:08:02 27° SW
Cosmos 923 Rocket 4.0 22:01:40 10° NNW 22:06:52 78° WSW 22:08:44 40° S
CZ-3A R/B 3.7 21:42:43 10° WSW 22:07:45 45° SSW 22:09:38 36° SSE
Cosmos 304 Rocket 3.7 22:05:26 10° NNW 22:10:17 90° ESE 22:11:25 53° SSE
Cosmos 2150 Rocket 4.1 22:11:46 47° SSE 22:12:57 57° ESE 22:18:18 10° NNE
Cosmos 1898 Rocket 3.5 22:13:30 51° SE 22:14:14 56° ESE 22:19:19 10° NNE
Landsat 7 4.1 22:13:54 46° E 22:14:30 49° ENE 22:19:05 10° N
NOAA 11 4.1 22:13:06 46° SSE 22:14:48 80° ENE 22:20:16 10° N
CZ-4B R/B 4.1 22:10:15 10° N 22:15:25 57° WNW 22:19:28 16° SSW
SL-16 R/B 3.8 22:10:59 10° NW 22:15:44 28° WSW 22:19:09 16° SSW
Cosmos 2360 Rocket 2.2 22:11:48 10° NNW 22:17:28 79° WSW 22:19:14 46° S
Meteor 1-11 4.2 22:15:56 35° S 22:18:28 88° ESE 22:24:15 10° N
Cosmos 1633 Rocket 2.9 22:19:20 67° E 22:19:24 67° E 22:23:45 10° NNE
Sich 1 2.9 22:19:29 70° SE 22:19:43 73° E 22:24:08 10° N
Cosmos 858 Rocket 4.4 22:22:09 58° SE 22:22:43 62° ESE 22:27:51 10° NNE
DMSP B5D2-2 4.2 22:18:09 10° NNE 22:23:13 50° E 22:23:22 50° ESE
Cosmos 2315 Rocket 4.1 22:18:20 10° N 22:24:31 72° W 22:27:09 36° SSW
Terra 2.1 22:30:16 49° ENE 22:30:22 49° ENE 22:34:57 10° N
Cosmos 1626 4.4 22:34:25 17° NE 22:34:25 17° NE 22:35:34 10° NNE
Cosmos 1805 Rocket 4.4 22:31:19 33° SW 22:32:46 46° W 22:37:04 10° N
Meteor 1-4 Rocket 3.8 22:30:22 10° N 22:32:55 35° NNE 22:32:55 35° NNE
Cosmos 1300 3.1 22:31:50 10° NNW 22:35:15 61° WNW 22:35:15 61° WNW
Cosmos 2227 Rocket 2.9 22:39:32 38° E 22:39:32 38° E 22:43:51 10° NE
SeaSat 1 4.4 22:38:15 15° ENE 22:39:12 16° NE 22:42:10 10° NNE
Meteor 2-10 4.4 22:34:52 10° N 22:40:27 53° E 22:40:53 52° E
CZ-4C R/B 4.1 22:43:31 43° NW 22:43:31 43° NW 22:46:02 10° NNW
USA 32 3.9 22:41:23 10° N 22:46:40 88° E 22:47:01 79° S
Cosmos 2333 Rocket 3.3 22:43:28 10° N 22:48:33 32° ENE 22:49:11 31° ENE
Spot 2 4.3 22:44:46 10° NNE 22:49:48 81° E 22:49:48 81° E
SL-16 R/B 4.4 22:51:28 10° NNE 22:54:10 13° NE 22:55:32 12° ENE
Nadezhda 1 Rocket 3.9 22:50:33 10° N 22:56:36 67° E 22:57:04 64° ESE
Cosmos 1455 4.0 22:55:02 10° N 22:56:59 26° NNE 22:56:59 26° NNE
NOSS 3-1 (A) 3.8 22:54:38 20° SW 22:58:43 59° NW 23:05:01 10° NNE
COSMOS 2428 2.6 22:54:35 10° NNW 23:00:15 73° WSW 23:00:36 71° SW
Cosmos 1745 Rocket 4.0 23:01:49 55° SSW 23:03:13 73° W 23:09:25 10° N
Cosmos 2297 Rocket 2.9 23:07:31 41° ENE 23:07:31 41° ENE 23:11:35 10° NNE
DELTA 2 R/B (1) 3.5 23:02:21 10° WNW 23:07:27 74° W 23:07:27 74° W
Cosmos 1470 Rocket 4.3 23:09:03 50° NNW 23:09:03 50° NNW 23:12:25 10° N
Cosmos 1933 Rocket 4.2 23:10:27 54° NNW 23:10:27 54° NNW 23:14:03 10° N
Cosmos 1709 Rocket 4.2 23:12:07 54° E 23:12:07 54° E 23:17:45 10° NNE
Cosmos 1937 Rocket 4.2 23:16:59 45° W 23:17:44 48° WNW 23:22:47 10° N
Cosmos 2219 Rocket 2.2 23:14:51 10° NNW 23:20:07 76° NNE 23:20:07 76° NNE
ATLAS 2AS CENTAUR R/B 2.8 23:19:59 67° S 23:20:57 75° ESE 23:28:54 10° NNE
H-2A R/B 2.8 23:21:57 43° W 23:22:01 43° W 23:27:08 10° NNW
COSMOS 2455 4.3 23:19:18 10° N 23:24:13 25° NE 23:25:14 24° ENE
Cosmos 1980 3.9 23:28:36 10° NNW 23:33:40 67° NNE 23:33:40 67° NNE
Cosmos 2181 Rocket 4.2 23:29:32 10° N 23:35:40 61° ENE 23:35:40 61° ENE
Cosmos 2082 4.3 23:45:28 51° W 23:45:49 51° WNW 23:51:24 10° N
NOSS 0 Rocket 4.0 23:39:41 10° NNW 23:45:22 70° WNW 23:45:22 70° WNW
Cosmos 2237 Rocket 2.4 23:41:58 10° NNW 23:46:53 67° NNW 23:46:53 67° NNW
ATLAS 3B R/B 3.5 23:41:46 10° NNW 23:48:11 38° NE 23:49:27 35° ENE
